Back to catalog

COSMOS 970 DEB

AliveLEO
NORAD 10886·DEBRIS·🇷🇺 Russia

Launched Dec 21, 1977 from Baikonur Cosmodrome

Loading…

Next Passes (next 24 hours)

TLE

FreshSource: Space-Track

Epoch: Sep 13, 2026, 08:58 UTC

1 10886U 77121AH  26256.37401267  .00000212  00000-0  29987-3 0  9995
2 10886  65.8428 123.5635 0098370  81.5508  92.2388 13.73995491432021

Track COSMOS 970 DEB in real time with AllMySat

Download on the App Store